Regional Weather Roundup
Issued by NWS

Home | Current Version | Previous Version | Text Only | Print | Product List | Glossary Off
Versions: 1 2 3 4 5 6 7 8 9 10 11 12 13 14 15 16 17 18 19 20 21 22 23 24 25 26 27 28 29 30 31 32 33 34 35 36 37 38 39 40 41 42 43 44 45 46 47 48 49 50

000
ASUS43 KLOT 311458
RWRIL

ILLINOIS REGIONAL WEATHER ROUNDUP
NATIONAL WEATHER SERVICE CHICAGO/ROMEOVILLE IL
900 AM CST SAT JAN 31 2015

NOTE: "FAIR" INDICATES FEW OR NO CLOUDS BELOW 12,000 FEET WITH NO
SIGNIFICANT WEATHER AND/OR OBSTRUCTIONS TO VISIBILITY.

* THESE STATIONS ARE NOT UNDER NWS QUALITY CONTROL. THEY ALSO MAY NOT
  REPORT WEATHER SUCH AS PRECIPITATION OR FOG.

ILZ001-002-007-009-015-016-024-311600-
NORTHWEST ILLINOIS

CITY           SKY/WX    TMP DP  RH WIND       PRES   REMARKS
MOLINE         CLOUDY    33  24  69 SW10      30.22F WCI  25
$$

ILZ003-004-008-010-011-017-018-311600-
NORTH CENTRAL ILLINOIS

CITY           SKY/WX    TMP DP  RH WIND       PRES   REMARKS
ROCKFORD       NOT AVBL
$$

ILZ005-006-012>014-019>023-311600-
NORTHEAST ILLINOIS

CITY           SKY/WX    TMP DP  RH WIND       PRES   REMARKS
CHICAGO-OHARE  MOSUNNY   28  20  71 SW9       30.23S WCI  19
CHICAGO-MIDWAY NOT AVBL
AURORA         MOSUNNY   28  20  71 SW9       30.23F WCI  19
WAUKEGAN       NOT AVBL
DUPAGE AIRPORT MOSUNNY   28  21  75 SW13      30.22F WCI  17
WHEELING       MOSUNNY   28  19  69 SW9       30.24S WCI  19
NORTHERLY ISL    N/A     29  21  72 W8          N/A  WCI  21
$$

LMZ740>746-311600-
SOUTHERN LAKE MICHIGAN

STATION/POSITION SKY/WX   TEMP    WIND        PRES    VSBY  WAVE
                          AIR SEA DIR/SP/G                  HT/PER
                          (F)     (DEG/KT/KT) (MB)    (MI)  (FT/S)
WAUKEGAN HARBOR            27     240/ 12/ 16   N/A
HARRISON CRIB              30     230/ 20/ 24   N/A
BURNHAM HARBOR             29     260/  9/  9   N/A
CALUMET HARBOR             28     210/  8/ 13   N/A
MICHIGAN CITY              26     180/ 12/ 15   N/A
$$

ILZ025>027-034>036-040-047-049-050-058-095>099-311600-
WEST-CENTRAL ILLINOIS

CITY           SKY/WX    TMP DP  RH WIND       PRES   REMARKS
$$

ILZ028>032-037-038-041>044-048-051>054-059>061-311600-
CENTRAL ILLINOIS

CITY           SKY/WX    TMP DP  RH WIND       PRES   REMARKS
PEORIA         NOT AVBL
SPRINGFIELD    CLOUDY    33  24  69 SW7       30.31F WCI  27
TAYLORVILLE    NOT AVBL
$$

ILZ033-039-045-046-055>057-062-063-311600-
EAST-CENTRAL ILLINOIS

CITY           SKY/WX    TMP DP  RH WIND       PRES   REMARKS
CHAMPAIGN      PTSUNNY   30  25  81 SW13      30.31S WCI  20
MATTOON        CLOUDY    31  23  72 S10       30.32S WCI  22
$$

ILZ079-100>102-311600-
SOUTHWEST ILLINOIS

CITY           SKY/WX    TMP DP  RH WIND       PRES   REMARKS
CAHOKIA*       CLOUDY    33  25  72 CALM      30.35S
$$

ILZ064>066-069>071-074>076-080>082-084>086-088>090-092>094-311600-
SOUTH-CENTRAL ILLINOIS

CITY           SKY/WX    TMP DP  RH WIND       PRES   REMARKS
CARBONDALE     CLOUDY    33  25  72 S3        30.39R
MARION         CLOUDY    34  27  75 S8        30.40R WCI  27
$$

ILZ067-068-072-073-078-083-087-091-311600-
SOUTHEAST ILLINOIS

CITY           SKY/WX    TMP DP  RH WIND       PRES   REMARKS
$$

ABBREVIATIONS USED IN REMARKS
   TC - TEMPERATURE IN CELSIUS
  WCI - WIND CHILL INDEX
   HX - HEAT INDEX
  VSB - VISIBILITY
$$



USA.gov is the U.S. government's official web portal to all federal, state and local government web resources and services.